{"data":{"norad_id":67919,"intl_designator":"2026-036R","name":"STARLINK-36663","alt_names":[],"object_type":"PAYLOAD","status":"ACTIVE","operator":null,"country":"US","launch_date":"2026-02-22","launch_site_code":"AFETR","launch_vehicle":null,"mission":null,"orbit_class":"UNKNOWN","rcs_meters":null,"size_class":null,"mass_kg":null,"dimensions":null,"purposes":["comms"],"wikipedia_slug":null,"has_3d_model":false,"image_url":null,"decayed_at":null,"tle_current":{"epoch":"2026-05-24T10:55:49.257408Z","epoch_age_seconds":115954,"freshness":"FRESH","line1":"1 67919U 26036R   26144.45543122  .00013616  00000+0  50318-3 0  9998","line2":"2 67919  42.9986 177.0056 0001640 276.6902  83.3763 15.27592998 15318","mean_motion":15.27592998,"eccentricity":0.000164,"inclination_deg":42.9986,"raan_deg":177.0056,"arg_perigee_deg":276.6902,"mean_anomaly_deg":83.3763,"bstar":0.00050318,"rev_number":1531,"period_min":94.26594661571,"perigee_km":481.88494749082,"apogee_km":484.13540376442,"semimajor_km":6861.1471756276,"source":"CELESTRAK","updated_at":"2026-05-25T13:38:21.740779Z"}}}